Weather History for Great Falls, MT

Change the Weather History Date:

Saturday, June 7, 2014

  Actual Average Record
Temperature  
Mean Temperature 60 °F 58 °F  
Max Temperature 71 °F 70 °F 96 °F (1930)
Min Temperature 48 °F 45 °F 31 °F (1950)
Degree Days  
Heating Degree Days 5 8  
Month to date heating degree days 60 61  
Since 1 June heating degree days 60 61  
Since 1 July heating degree days 7848 7596  
Cooling Degree Days 0 1  
Month to date cooling degree days 0 3  
Year to date cooling degree days 0 10  
Since 1 June cooling degree days 0 3  
Growing Degree Days 9 (Base 50)    
Moisture  
Dew Point 33 °F    
Average Humidity 45    
Maximum Humidity 71    
Minimum Humidity 18    
Precipitation  
Precipitation 0.00 in 0.10 in 1.07 in (1964)
Month to date precipitation 0.45 0.74  
Year to date precipitation 7.56 6.47  
Snow  
Snow 0.00 in 0.10 in 8.00 in (1950)
Month to date snowfall 0.0 0.2  
Since 1 June snowfall 0.0 0.2  
Since 1 July snowfall 76.4 63.4  
Snow Depth 0.00 in    
Sea Level Pressure  
Sea Level Pressure 30.04 in    
Wind  
Wind Speed 9 mph (NE)    
Max Wind Speed 17 mph    
Max Gust Speed 29 mph    
Visibility 10 miles    
Events      
T = Trace of Precipitation, MM = Missing Value Source: NWS Daily Summary

Daily Weather History Graph

Daily Weather History Graph

Search for Another Location

Airport:

Trip Planner

Search our weather history database for the weather conditions in past years. The results will help you decide how hot, cold, wet, or windy it might be!

Date:

Astronomy

Jun. 07, 2014 Rise Set
Actual Time 5:29 AM MDT 9:19 PM MDT
Civil Twilight 4:49 AM MDT 9:59 PM MDT
Nautical Twilight 3:55 AM MDT 10:54 PM MDT
Astronomical Twilight 2:34 AM MDT 12:15 AM MDT
Moon 3:19 PM MDT (6/7) 2:16 AM MDT (6/7)
Length of Visible Light 17h 10m
Length of Day
15h 50m
Waxing Gibbous, 68% of the Moon is Illuminated
Jun 7
Waxing Gibbous
Jun 12
Full
Jun 19
Last Quarter
Jun 27
New
Jul 5
First Quarter

Hourly Weather History & Observations

Time (MDT) Temp. Dew Point Humidity Pressure Visibility Wind Dir Wind Speed Gust Speed Precip Events Conditions
12:53 AM 48.9 °F 39.9 °F 71% 30.09 in 10.0 mi ESE 9.2 mph - N/A   Clear
1:53 AM 48.9 °F 39.9 °F 71% 30.09 in 10.0 mi SE 6.9 mph - N/A   Scattered Clouds
2:53 AM 48.9 °F 39.9 °F 71% 30.08 in 10.0 mi SE 4.6 mph - N/A   Mostly Cloudy
3:53 AM 50.0 °F 41.0 °F 71% 30.08 in 10.0 mi South 5.8 mph - N/A   Overcast
4:53 AM 50.0 °F 39.9 °F 68% 30.06 in 10.0 mi South 9.2 mph - N/A   Overcast
6:53 AM 50.0 °F 39.9 °F 68% 30.06 in 10.0 mi SSW 11.5 mph - N/A   Overcast
7:53 AM 51.8 °F 41.0 °F 67% 30.07 in 10.0 mi SSW 9.2 mph - N/A   Overcast
8:53 AM 57.2 °F 42.8 °F 59% 30.06 in 10.0 mi SSW 9.2 mph - N/A   Clear
9:53 AM 61.0 °F 42.1 °F 50% 30.04 in 10.0 mi SW 6.9 mph - N/A   Scattered Clouds
10:53 AM 63.0 °F 37.9 °F 40% 30.03 in 10.0 mi WSW 8.1 mph - N/A   Partly Cloudy
11:53 AM 68.0 °F 30.9 °F 25% 30.01 in 10.0 mi NNW 12.7 mph 18.4 mph N/A   Partly Cloudy
12:53 PM 69.1 °F 30.0 °F 23% 30.00 in 10.0 mi Variable 5.8 mph 18.4 mph N/A   Scattered Clouds
1:53 PM 70.0 °F 25.0 °F 18% 29.99 in 10.0 mi WNW 11.5 mph 18.4 mph N/A   Scattered Clouds
2:53 PM 68.0 °F 28.0 °F 22% 30.00 in 10.0 mi North 9.2 mph - N/A   Mostly Cloudy
3:53 PM 66.9 °F 28.0 °F 23% 30.00 in 10.0 mi NW 5.8 mph - N/A   Mostly Cloudy
4:53 PM 68.0 °F 27.0 °F 21% 30.00 in 10.0 mi NW 11.5 mph 21.9 mph N/A   Scattered Clouds
5:53 PM 66.9 °F 28.0 °F 23% 30.01 in 10.0 mi NNW 12.7 mph - N/A   Mostly Cloudy
6:53 PM 66.0 °F 27.0 °F 23% 30.02 in 10.0 mi NNE 9.2 mph - N/A   Overcast
7:53 PM 63.0 °F 27.0 °F 26% 30.03 in 10.0 mi NNE 10.4 mph - N/A   Mostly Cloudy
8:53 PM 61.0 °F 27.0 °F 27% 30.03 in 10.0 mi NNE 10.4 mph - N/A   Scattered Clouds
9:53 PM 59.0 °F 26.1 °F 28% 30.05 in 10.0 mi ENE 9.2 mph - N/A   Overcast
10:53 PM 57.9 °F 26.1 °F 30% 30.06 in 10.0 mi NE 12.7 mph - N/A   Overcast
11:53 PM 54.0 °F 28.0 °F 37% 30.06 in 10.0 mi East 8.1 mph - N/A   Mostly Cloudy